Humidity-temperature Sensor

Selected Measurement Type: Air Temperature

 
Air Temperature [°C]     6 entries per hour
Showing data from 4/17/2015 (00:00:00 Z) to 4/16/2015 (00:01:00 Z)
Previous Next [ Day | 3-Days | 7-Days ]
First Last
Prev [ Day | 3-Days | 7-Days ] Next
First Last

Start Time:     :
End Time:     :     
Time (in GMT) :00 :50 :40 :30 :20 :10
Previous Next [ Day | 3-Days | 7-Days ]
First Last
Prev [ Day | 3-Days | 7-Days ] Next
First Last


123 => good data
MM => data is determined as missing
-- => data not received/configured
Back to Top Back to Top
4/17/2015 00:00 to 23:10 27.67 27.66 27.75 27.86 27.84 27.82
4/16/2015 23:00 to 22:10 27.80 27.67 27.66 27.74 27.88 27.86
4/16/2015 22:00 to 21:10 27.96 27.84 27.83 27.77 27.65 27.66
4/16/2015 21:00 to 20:10 27.62 27.65 27.77 27.75 27.74 27.68
4/16/2015 20:00 to 19:10 27.70 27.68 27.80 27.71 27.58 27.84
4/16/2015 19:00 to 18:10 27.86 27.91 27.91 27.88 27.82 27.68
4/16/2015 18:00 to 17:10 27.66 27.83 27.81 27.75 27.89 27.91
4/16/2015 17:00 to 16:10 27.83 27.34 26.64 26.69 27.15 27.34
4/16/2015 16:00 to 15:10 27.27 27.19 26.72 26.57 26.36 26.26
4/16/2015 15:00 to 14:10 26.05 25.85 25.44 25.86 25.99 26.00
4/16/2015 14:00 to 13:10 25.74 25.97 26.25 25.62 25.66 26.14
4/16/2015 13:00 to 12:10 26.67 26.63 26.30 26.51 26.06 26.35
4/16/2015 12:00 to 11:10 26.40 26.40 26.55 26.54 26.63 26.59
4/16/2015 11:00 to 10:10 26.58 26.34 26.42 26.38 26.26 26.42
4/16/2015 10:00 to 9:10 26.49 26.45 26.55 26.47 26.57 26.50
4/16/2015 09:00 to 8:10 26.33 26.27 26.71 26.80 26.70 26.88
4/16/2015 08:00 to 7:10 26.76 26.78 26.85 26.81 26.94 27.15
4/16/2015 07:00 to 6:10 27.08 27.05 26.93 26.85 26.85 26.86
4/16/2015 06:00 to 5:10 26.90 26.91 26.82 26.89 26.85 26.85
4/16/2015 05:00 to 4:10 26.93 27.02 27.04 26.87 26.84 26.89
4/16/2015 04:00 to 3:10 26.83 26.90 26.66 26.58 26.69 26.60
4/16/2015 03:00 to 2:10 26.49 26.61 26.36 26.48 26.59 26.36
4/16/2015 02:00 to 1:10 26.33 26.23 26.24 26.33 26.31 26.20
4/16/2015 01:00 to 0:10 26.28 26.26 26.35 26.61 26.21 25.64